Regional Weather Roundup
Issued by NWS

Home | Current Version | Previous Version | Text Only | Print | Product List | Glossary Off
Versions: 1 2 3 4 5 6 7 8 9 10 11 12 13 14 15 16 17 18 19 20 21 22 23 24 25 26 27 28 29 30 31 32 33 34 35 36 37 38 39 40 41 42 43 44 45 46 47 48 49 50

074
ASUS43 KLMK 011602
RWRKY
KENTUCKY REGIONAL WEATHER ROUNDUP
NATIONAL WEATHER SERVICE LOUISVILLE KY
1200 PM EDT SUN MAY 01 2016

NOTE "FAIR" INDICATES FEW OR NO CLOUDS BELOW 12,000 FEET
WITH NO SIGNIFICANT WEATHER AND/OR OBSTRUCTIONS TO VISIBILITY.

KYZ001>023-026-027-061>063-070>075-011700-
WESTERN AND SOUTH CENTRAL KENTUCKY

CITY           SKY/WX    TMP DP  RH WIND       PRES   REMARKS
PADUCAH        CLOUDY    71  65  81 S5        29.92R
HENDERSON      SUNNY     75  63  64 SW6       29.91R
OWENSBORO      MOSUNNY   76  65  68 S9        29.93R
HOPKINSVILLE   CLOUDY    72  67  84 S7        29.95R
BOWLING GREEN  CLOUDY    73  66  78 S7        29.95F
GLASGOW        NOT AVBL
$$

KYZ024-025-028>034-038-045-046-053-011700-
NORTH CENTRAL KENTUCKY

CITY           SKY/WX    TMP DP  RH WIND       PRES   REMARKS
LOUISVILLE/SDF PTSUNNY   76  64  66 VRB7      29.92R
LOUISVILLE/LOU MOSUNNY   75  64  68 VRB5      29.93R
FORT KNOX      MOSUNNY   76  65  69 S10       29.91S
$$

KYZ035>037-039>044-047>052-055>060-089>105-011700-
NORTHEAST KENTUCKY

CITY           SKY/WX    TMP DP  RH WIND       PRES   REMARKS
LEXINGTON      PTSUNNY   74  65  73 S12       29.95S
COVINGTON      NOT AVBL
FRANKFORT      PTSUNNY   74  63  68 SW8       29.93S
$$

KYZ054-064>069-076>088-106>120-011700-
SOUTHEAST KENTUCKY

CITY           SKY/WX    TMP DP  RH WIND       PRES   REMARKS
JACKSON        PTSUNNY   69  63  81 VRB3      29.99F
LONDON         PTSUNNY   73  63  70 W9        29.99S
SOMERSET       NOT AVBL
MIDDLESBORO    NOT AVBL
MONTICELLO     MOSUNNY   77  66  68 W18       29.99S
$$





USA.gov is the U.S. government's official web portal to all federal, state and local government web resources and services.